User: anonymous   Login
Location: STAR School
(35.3054°N, 111.2976°W)
Time: 07:56:55
(UTC-07:00)
Language:

deb Explorer IX - Orbit

View from above orbital plane
View from above orbital plane
View from above satellite
View from above satellite

Ground track
Ground track

The orbit data is extracted from the following two-line orbital elements,

1    85U 61004C   19145.55252796  .00000484  00000-0  12372-3 0  9999
2    85  38.7731 203.1612 0400131  70.4020 293.9463 14.19718595875771
Epoch (UTC): 25 May 2019 13:15:38
Eccentricity: 0.0400131
inclination: 38.7731°
perigee height: 538 km
apogee height: 1114 km
right ascension of ascending node: 203.1612°
argument of perigee: 70.4020°
revolutions per day: 14.19718595
mean anomaly at epoch: 293.9463°
orbit number at epoch: 87577

The dashed part of the orbit path shows where the satellite is in the earth's shadow,  

DLR